Stations météo

réclame
Mon MeteoGroup
Florennes, Belgique (6456): Température de l'air & dewpoint: 22.10.2020 15:00:00 - 28.10.2020 15:00:00 (CET)Florennes, Belgique (6456): Vitesse du vent & gusts: 22.10.2020 15:00:00 - 28.10.2020 15:00:00 (CET)Florennes, Belgique (6456): Direction du vent: 22.10.2020 15:00:00 - 28.10.2020 15:00:00 (CET)Florennes, Belgique (6456): reduced air pressure: 22.10.2020 15:00:00 - 28.10.2020 15:00:00 (CET)Florennes, Belgique (6456): visibility: 22.10.2020 15:00:00 - 28.10.2020 15:00:00 (CET)
Date & Time tt [°C] td [°C] ff [km/h] ff [knt] fx [km/h] fx [knt] dd ppp [hPa] vv [km]
28.10.2020 15:00:00 11,6 6,9 32 18 54 29 SSW 1009,2 20
28.10.2020 14:00:00 11,5 6,6 29 16 50 27 SSW 1009,5 20
28.10.2020 13:00:00 11,0 7,0 32 18 - - SW 1010,2 20
28.10.2020 12:00:00 10,6 7,1 29 16 54 29 SSW 1010,0 20
28.10.2020 11:00:00 10,1 7,1 25 14 40 21 SW 1010,2 20
28.10.2020 10:00:00 10,0 7,8 25 14 - - SSW 1009,6 20
28.10.2020 09:00:00 9,6 8,1 22 12 36 19 SW 1009,2 20
28.10.2020 08:00:00 9,1 7,9 18 10 36 19 SW 1008,6 20
28.10.2020 07:00:00 9,5 8,2 22 12 - - WSW 1007,5 20
28.10.2020 06:00:00 10,0 9,2 18 10 32 18 SW 1006,7 20
28.10.2020 05:00:00 10,0 9,1 18 10 29 16 SSW 1006,3 20
28.10.2020 04:00:00 10,3 9,5 18 10 - - SSW 1005,7 19
28.10.2020 03:00:00 10,0 8,4 18 10 29 16 SW 1005,7 20
28.10.2020 02:00:00 10,8 10,1 14 8 29 16 WSW 1005,5 8
28.10.2020 01:00:00 10,8 10,2 18 10 - - SW 1005,0 20
28.10.2020 00:00:00 10,6 10,0 25 14 36 19 SSW 1004,6 20
27.10.2020 23:00:00 10,0 9,4 22 12 47 25 SSW 1004,2 6
27.10.2020 22:00:00 9,6 8,8 29 16 - - S 1003,7 10
27.10.2020 21:00:00 9,4 8,3 32 18 58 31 S 1003,3 20
27.10.2020 20:00:00 9,5 7,9 32 18 58 31 S 1003,2 14
27.10.2020 19:00:00 9,3 7,8 36 19 - - S 1003,5 20
27.10.2020 18:00:00 9,3 7,3 31 17 50 27 S 1003,8 10
27.10.2020 17:00:00 9,3 6,7 29 16 50 27 S 1004,2 15
27.10.2020 16:00:00 9,6 6,3 29 16 - - S 1004,7 15
27.10.2020 15:00:00 9,5 6,1 32 18 47 25 S 1005,3 15
27.10.2020 14:00:00 9,5 5,6 29 16 43 23 S 1005,8 15
27.10.2020 13:00:00 9,0 5,8 25 14 - - SSW 1006,7 15
27.10.2020 12:00:00 8,2 6,3 22 12 40 21 SSW 1007,2 15
27.10.2020 11:00:00 8,1 6,4 25 14 36 19 SSW 1007,2 15
27.10.2020 10:00:00 7,5 6,3 22 12 - - SSW 1007,3 15
27.10.2020 09:00:00 7,5 6,1 18 10 36 19 SSW 1007,0 15
27.10.2020 08:00:00 7,1 6,0 18 10 36 19 SSW 1006,8 15
27.10.2020 07:00:00 7,2 5,5 18 10 - - SSW 1006,6 18
27.10.2020 06:00:00 7,3 5,7 18 10 29 16 SSW 1005,8 20
27.10.2020 05:00:00 7,3 5,8 18 10 32 18 SSW 1005,5 20
27.10.2020 04:00:00 7,4 5,7 18 10 - - SSW 1005,2 20
27.10.2020 03:00:00 7,5 6,1 22 12 32 18 SSW 1005,2 20
27.10.2020 02:00:00 7,6 6,3 22 12 32 18 SSW 1005,2 19
27.10.2020 01:00:00 8,1 6,7 18 10 - - SSW 1005,2 5
27.10.2020 00:00:00 8,1 6,7 22 12 32 18 SSW 1005,1 20
26.10.2020 23:00:00 7,8 6,6 22 12 32 18 SSW 1004,8 20
26.10.2020 22:00:00 8,6 6,2 22 12 - - SSW 1004,8 20
26.10.2020 21:00:00 8,5 5,8 22 12 32 18 SSW 1004,3 20
26.10.2020 20:00:00 8,7 5,6 18 10 29 16 SSW 1004,1 10
26.10.2020 19:00:00 8,6 5,5 18 10 - - SSW 1003,8 20
26.10.2020 18:00:00 8,6 6,4 11 6 29 16 S 1003,2 20
26.10.2020 17:00:00 9,5 5,8 18 10 40 21 SW 1003,2 20
26.10.2020 16:00:00 10,3 5,3 22 12 - - SSW 1002,7 20
26.10.2020 15:00:00 10,5 5,5 22 12 40 21 SSW 1002,3 20
26.10.2020 14:00:00 10,5 5,2 25 14 50 27 SW 1002,2 20
26.10.2020 13:00:00 10,4 5,0 25 14 - - SW 1002,3 20
26.10.2020 12:00:00 9,0 5,0 25 14 43 23 SW 1003,0 20
26.10.2020 11:00:00 9,0 5,0 28 15 - - SSW - 10
26.10.2020 10:00:00 7,8 5,7 24 13 - - SSW 1003,2 10
26.10.2020 09:00:00 7,5 5,5 22 12 36 19 SW 1003,2 20
26.10.2020 08:00:00 7,6 5,8 18 10 32 18 SSW 1002,8 20
26.10.2020 07:00:00 7,6 6,2 18 10 - - SSW 1002,2 20
26.10.2020 06:00:00 7,6 6,2 14 8 29 16 SSW 1001,3 20
26.10.2020 05:00:00 8,1 7,0 14 8 25 14 SSW 1001,7 20
26.10.2020 04:00:00 8,3 7,2 18 10 - - SSW 1001,6 20
26.10.2020 03:00:00 8,6 7,6 18 10 25 14 SW 1001,5 20
26.10.2020 02:00:00 8,8 7,9 14 8 22 12 SSW 1001,5 20
26.10.2020 01:00:00 8,5 7,6 14 8 - - SSW 1001,7 20
26.10.2020 00:00:00 9,0 7,9 18 10 29 16 S 1001,7 20
25.10.2020 23:00:00 9,3 8,4 18 10 29 16 SSW 1002,1 20
25.10.2020 22:00:00 9,5 8,7 11 6 - - S 1002,1 19
25.10.2020 21:00:00 9,6 8,7 14 8 25 14 SSW 1002,2 20
25.10.2020 20:00:00 9,3 8,3 18 10 29 16 SSW 1002,6 10
25.10.2020 19:00:00 9,6 8,5 14 8 - - SSW 1002,7 20
25.10.2020 18:00:00 9,8 8,7 14 8 29 16 SSW 1002,8 20
25.10.2020 17:00:00 9,8 8,8 14 8 25 14 SSW 1002,6 20
25.10.2020 16:00:00 9,8 8,7 15 8 - - S 1002,0 10
25.10.2020 15:00:00 10,3 9,2 14 8 29 16 S 1002,6 20
25.10.2020 14:00:00 10,5 9,3 18 10 29 16 S 1002,7 20
25.10.2020 13:00:00 10,3 9,4 14 8 - - S 1003,0 20
25.10.2020 12:00:00 10,4 9,2 18 10 36 19 SSW 1003,3 20
25.10.2020 11:00:00 10,6 10,0 18 10 32 18 SSW 1003,7 4,9
25.10.2020 10:00:00 10,8 9,9 26 14 - - S 1003,2 10
25.10.2020 09:00:00 10,6 9,8 18 10 36 19 S 1003,3 20
25.10.2020 08:00:00 10,5 9,7 22 12 40 21 SSW 1004,0 10
25.10.2020 07:00:00 10,8 9,4 24 13 - - SSW 1003,6 7
25.10.2020 06:00:00 11,4 9,1 29 16 47 25 SSW 1003,6 14
25.10.2020 05:00:00 12,3 8,9 25 14 43 23 S 1003,7 20
25.10.2020 04:00:00 12,3 9,4 25 14 - - S 1003,8 20
25.10.2020 03:00:00 12,3 9,9 28 15 43 23 S 1005,2 10
25.10.2020 02:00:00 12,8 9,8 29 16 47 25 S 1005,6 20
25.10.2020 01:00:00 - - - - - - - - -
25.10.2020 00:00:00 13,0 10,4 25 14 58 31 S 1007,1 20
24.10.2020 23:00:00 13,1 10,6 40 21 61 33 SSW 1007,5 20
24.10.2020 22:00:00 13,3 11,0 36 19 - - S 1007,7 20
24.10.2020 21:00:00 13,4 11,2 29 16 47 25 S 1008,2 20
24.10.2020 20:00:00 13,3 11,4 32 18 47 25 S 1009,1 20
24.10.2020 19:00:00 13,0 11,6 25 14 - - S 1009,6 20
24.10.2020 18:00:00 12,8 11,7 25 14 40 21 SSW 1010,1 5
24.10.2020 17:00:00 13,1 11,4 25 14 43 23 SSW 1010,7 20
24.10.2020 16:00:00 12,6 11,7 26 14 - - S 1011,0 10
24.10.2020 15:00:00 12,6 11,4 21 11 36 19 S 1011,7 10
24.10.2020 14:00:00 11,9 11,3 22 12 36 19 S 1012,2 3,7
24.10.2020 13:00:00 11,8 11,0 22 12 - - S 1013,0 8
24.10.2020 12:00:00 11,6 10,6 25 14 40 21 S 1013,5 5
24.10.2020 11:00:00 11,8 9,8 25 14 47 25 SSW 1013,7 20
24.10.2020 10:00:00 11,5 9,4 22 12 - - SSW 1013,7 20
24.10.2020 09:00:00 10,6 9,5 24 13 47 25 SSW 1013,7 3,1
24.10.2020 08:00:00 10,8 9,5 28 15 40 21 SSW 1013,3 2,9
24.10.2020 07:00:00 10,9 9,0 18 10 - - SSW 1013,5 10
24.10.2020 06:00:00 10,9 9,4 22 12 32 18 SSW 1013,7 20
24.10.2020 05:00:00 11,1 10,1 14 8 25 14 SW 1014,0 16
24.10.2020 04:00:00 10,5 9,7 14 8 - - SSW 1013,7 15
24.10.2020 03:00:00 11,0 9,7 22 12 29 16 SW 1014,2 19
24.10.2020 02:00:00 11,1 10,0 18 10 29 16 SW 1014,2 20
24.10.2020 01:00:00 11,3 9,9 18 10 - - SW 1013,8 20
24.10.2020 00:00:00 11,3 10,1 14 8 22 12 SSW 1014,0 20
23.10.2020 23:00:00 11,6 10,4 14 8 29 16 SSW 1014,0 20
23.10.2020 22:00:00 12,6 10,9 18 10 - - SSW 1013,3 13
23.10.2020 21:00:00 12,6 10,8 18 10 25 14 SSW 1012,7 20
23.10.2020 20:00:00 12,0 10,9 14 8 22 12 SSW 1012,3 20
23.10.2020 19:00:00 12,6 11,2 14 8 - - SSW 1012,1 20
23.10.2020 18:00:00 13,1 11,6 11 6 18 10 SSW 1012,0 20
23.10.2020 17:00:00 14,3 11,3 13 7 25 14 SW 1011,3 10
23.10.2020 16:00:00 15,4 12,2 18 10 - - WSW 1010,8 15
23.10.2020 15:00:00 14,8 12,6 11 6 22 12 SW 1010,5 15
23.10.2020 14:00:00 14,6 13,0 15 8 22 12 SW 1010,7 10
23.10.2020 13:00:00 14,1 12,9 14 8 - - SW 1010,8 15
23.10.2020 12:00:00 14,1 13,2 14 8 22 12 SW 1011,2 15
23.10.2020 11:00:00 13,7 13,1 7 4 18 10 SW 1011,2 10
23.10.2020 10:00:00 13,4 12,9 11 6 - - SSW 1011,2 12
23.10.2020 09:00:00 13,1 12,8 11 6 18 10 SSW 1011,2 5
23.10.2020 08:00:00 13,1 12,7 13 7 22 12 SSW 1011,1 10
23.10.2020 07:00:00 13,1 12,8 14 8 - - S 1011,0 12
23.10.2020 06:00:00 13,3 12,9 11 6 18 10 SSW 1011,1 8
23.10.2020 05:00:00 13,3 13,0 11 6 18 10 SSW 1011,2 13
23.10.2020 04:00:00 13,3 12,9 11 6 - - S 1011,7 9
23.10.2020 03:00:00 13,3 13,0 7 4 18 10 S 1011,8 11
23.10.2020 02:00:00 13,6 13,1 7 4 14 8 S 1012,6 6
23.10.2020 01:00:00 13,5 12,9 4 2 - - N 1012,8 17
23.10.2020 00:00:00 13,1 12,6 7 4 22 12 SSW 1013,0 18
22.10.2020 23:00:00 13,3 12,5 14 8 22 12 SSW 1012,8 20
22.10.2020 22:00:00 14,0 13,5 14 8 - - S 1012,7 16
22.10.2020 21:00:00 13,9 13,3 4 2 14 8 N 1012,7 11
22.10.2020 20:00:00 13,8 13,2 11 6 11 6 SSW 1012,7 11
22.10.2020 19:00:00 14,8 13,8 9 5 - - SW 1012,5 10
22.10.2020 18:00:00 15,6 13,3 7 4 22 12 SW 1012,0 20
22.10.2020 17:00:00 - - - - - - - - -
22.10.2020 16:00:00 16,4 13,7 14 8 - - WSW 1011,3 6
22.10.2020 15:00:00 17,1 13,1 18 10 32 18 SW 1011,2 10

tt = Température de l'air
td = dewpoint
ff = Vitesse du vent
fx = gusts
dd = Direction du vent
ppp = reduced air pressure
vv = visibility

stations d'obs. à proximité